Waarnemingen

Advertentie
Mijn weer
Cap Cepet, Frankrijk (7661): temperatuur & dauwpunt: 14.05.2019 04:00:00 - 20.05.2019 04:00:00 (CEST)Cap Cepet, Frankrijk (7661): windsnelheid & windstoten: 14.05.2019 04:00:00 - 20.05.2019 04:00:00 (CEST)Cap Cepet, Frankrijk (7661): windrichting: 14.05.2019 04:00:00 - 20.05.2019 04:00:00 (CEST)Cap Cepet, Frankrijk (7661): luchtdruk: 14.05.2019 04:00:00 - 20.05.2019 04:00:00 (CEST)Cap Cepet, Frankrijk (7661): zicht: 14.05.2019 04:00:00 - 20.05.2019 04:00:00 (CEST)Cap Cepet, Frankrijk (7661): neerslag: 14.05.2019 04:00:00 - 20.05.2019 04:00:00 (CEST)
Datum & Tijd tt [°C] td [°C] ff [km/u] ff [kn] fx [km/u] fx [kn] dd ppp [hPa] vv [km] rr [mm]
20.05.2019 04:00:00 12,6 11,0 25 14 33 18 NW 1005,6 - 0,0
20.05.2019 03:00:00 12,8 11,0 21 11 39 21 NNW 1005,8 - 0,0
20.05.2019 02:00:00 12,9 11,3 28 15 37 20 NW 1005,9 - 0,0
20.05.2019 01:00:00 12,7 11,3 24 13 36 20 NW 1006,5 - 0,0
20.05.2019 00:00:00 12,8 10,7 30 16 45 25 NW 1006,6 - 0,0
19.05.2019 23:00:00 12,6 10,8 37 20 51 27 NW 1006,8 - 0,0
19.05.2019 22:00:00 12,7 11,4 36 19 52 28 NW 1006,7 - 0,0
19.05.2019 21:00:00 12,9 10,4 41 22 58 31 NW 1006,3 - 0,0
19.05.2019 20:00:00 14,0 9,4 37 20 56 30 NW 1006,0 - 0,0
19.05.2019 19:00:00 15,8 9,2 40 22 59 32 NW 1004,7 - 0,0
19.05.2019 18:00:00 16,5 9,4 34 18 60 32 NW 1005,0 - 0,0
19.05.2019 17:00:00 16,2 9,4 38 21 64 35 NW 1004,9 - 0,0
19.05.2019 16:00:00 16,9 9,6 44 24 68 37 NW 1004,9 - 0,0
19.05.2019 15:00:00 17,5 9,6 44 24 64 34 NW 1004,6 - 0,0
19.05.2019 14:00:00 18,1 10,2 39 21 59 32 NW 1004,3 - 0,0
19.05.2019 13:00:00 18,1 10,0 36 19 53 28 NW 1004,4 - 0,0
19.05.2019 12:00:00 17,8 10,2 33 18 50 27 NW 1004,8 - 0,0
19.05.2019 11:00:00 16,6 10,2 28 15 39 21 NW 1004,9 25 0,0
19.05.2019 10:00:00 15,0 10,2 29 16 39 21 NW 1005,0 - 0,0
19.05.2019 09:00:00 14,1 10,3 29 16 45 24 NW 1004,8 - 0,0
19.05.2019 08:00:00 13,2 10,6 23 12 36 19 NW 1004,9 20 0,0
19.05.2019 07:00:00 12,7 9,7 16 8 21 11 NW 1005,1 - 0,0
19.05.2019 06:00:00 12,6 9,8 15 8 24 13 NW 1005,2 - 0,0
19.05.2019 05:00:00 12,8 9,8 16 9 20 11 NW 1005,2 20 0,0
19.05.2019 04:00:00 12,6 10,0 9 5 12 7 NNW 1005,5 - 0,0
19.05.2019 03:00:00 12,9 10,6 8 4 11 6 N 1005,9 - 0,0
19.05.2019 02:00:00 13,4 11,5 11 6 14 8 NW 1006,5 - 0,0
19.05.2019 01:00:00 13,5 11,2 12 7 30 16 NW 1007,0 - 0,0
19.05.2019 00:00:00 13,5 11,0 21 12 39 21 NW 1007,3 - 0,0
18.05.2019 23:00:00 13,8 11,0 29 15 51 27 NW 1007,6 - 0,0
18.05.2019 22:00:00 14,3 10,7 36 19 50 27 NW 1007,6 - 0,0
18.05.2019 21:00:00 14,1 10,5 22 12 42 23 NW 1007,1 - 0,0
18.05.2019 20:00:00 15,1 10,3 23 12 42 23 NW 1006,6 20 0,0
18.05.2019 19:00:00 15,9 10,0 27 15 39 21 NW 1006,3 - 0,0
18.05.2019 18:00:00 17,7 9,6 25 14 36 19 NW 1006,1 - 0,0
18.05.2019 17:00:00 19,3 10,0 25 14 37 20 NW 1005,8 20 0,0
18.05.2019 16:00:00 16,3 10,4 22 12 33 18 NW 1005,9 - 0,0
18.05.2019 15:00:00 17,4 9,6 18 10 32 17 WNW 1005,7 - 0,0
18.05.2019 14:00:00 20,6 9,5 21 11 37 20 NW 1005,2 20 0,0
18.05.2019 13:00:00 18,1 10,5 22 12 34 19 NW 1005,6 - 0,0
18.05.2019 12:00:00 17,1 10,9 19 11 31 17 NW 1005,8 - 0,0
18.05.2019 11:00:00 16,2 10,5 19 10 30 16 NW 1005,7 20 0,0
18.05.2019 10:00:00 15,0 9,4 9 5 14 8 NW 1005,7 - 0,0
18.05.2019 09:00:00 13,8 9,4 8 4 14 8 WNW 1005,6 - 0,0
18.05.2019 08:00:00 12,7 9,0 11 6 14 8 NW 1005,2 - 0,0
18.05.2019 07:00:00 12,1 9,7 6 3 8 4 N 1005,1 - 0,0
18.05.2019 06:00:00 11,9 8,7 3 2 13 7 NNO 1005,1 - 0,0
18.05.2019 05:00:00 12,2 9,8 8 5 11 6 ZZW 1005,2 - 0,2
18.05.2019 04:00:00 12,5 9,3 5 3 19 10 NNO 1005,1 15 0,2
18.05.2019 03:00:00 12,3 8,8 14 8 19 10 NW 1005,1 - 0,2
18.05.2019 02:00:00 12,6 10,0 16 9 25 14 O 1005,4 - 0,2
18.05.2019 01:00:00 13,8 7,8 10 6 27 15 NNO 1005,7 - 0,0
18.05.2019 00:00:00 14,0 7,1 12 6 23 13 ONO 1006,0 - 0,0
17.05.2019 23:00:00 13,2 7,0 15 8 23 12 ONO 1005,9 - 0,0
17.05.2019 22:00:00 12,9 7,3 17 9 29 16 O 1005,6 - 0,0
17.05.2019 21:00:00 12,4 8,7 22 12 40 21 O 1005,3 - 0,0
17.05.2019 20:00:00 12,0 9,6 30 16 52 28 O 1005,3 - 0,2
17.05.2019 19:00:00 13,5 10,1 32 18 59 32 O 1004,9 - 0,2
17.05.2019 18:00:00 14,3 10,3 40 22 55 30 O 1004,9 - 0,0
17.05.2019 17:00:00 14,1 10,1 32 18 55 30 O 1005,1 15 0,0
17.05.2019 16:00:00 14,4 9,4 40 22 63 34 O 1005,1 - 0,0
17.05.2019 15:00:00 15,1 9,7 38 21 62 34 O 1005,4 - 0,0
17.05.2019 14:00:00 15,8 8,8 36 19 57 31 O 1005,9 24 0,0
17.05.2019 13:00:00 15,0 9,8 36 20 66 36 O 1006,8 - 0,0
17.05.2019 12:00:00 14,6 10,8 30 16 59 32 O 1007,3 - 0,0
17.05.2019 11:00:00 14,5 10,9 33 18 61 33 O 1006,4 20 0,0
17.05.2019 10:00:00 14,9 10,5 34 18 61 33 O 1006,2 - 0,0
17.05.2019 09:00:00 13,2 10,0 25 14 38 21 O 1007,0 - 0,0
17.05.2019 08:00:00 12,0 9,6 28 15 44 24 O 1006,8 20 0,0
17.05.2019 07:00:00 11,4 9,0 25 13 34 19 O 1007,5 - 0,0
17.05.2019 06:00:00 11,0 8,9 20 11 28 15 O 1007,8 - 0,0
17.05.2019 05:00:00 10,8 8,9 18 10 23 12 O 1008,4 - 0,0
17.05.2019 04:00:00 11,1 9,2 15 8 26 14 O 1009,0 - 0,0
17.05.2019 03:00:00 11,5 9,4 16 9 22 12 O 1009,5 - 0,0
17.05.2019 02:00:00 12,1 9,7 11 6 16 9 O 1010,1 - 0,0
17.05.2019 01:00:00 13,0 10,0 5 3 7 4 NW 1010,4 - 0,0
17.05.2019 00:00:00 13,1 9,9 4 2 8 4 NW 1010,8 - 0,0
16.05.2019 23:00:00 13,4 10,0 7 4 20 11 NW 1011,1 - 0,0
16.05.2019 22:00:00 13,3 9,9 15 8 25 14 W 1010,9 - 0,0
16.05.2019 21:00:00 14,1 10,1 16 9 26 14 WZW 1010,6 - 0,0
16.05.2019 20:00:00 14,7 9,5 17 9 28 15 WZW 1011,0 - 0,0
16.05.2019 19:00:00 16,6 8,5 17 9 32 17 WZW 1010,7 - 0,0
16.05.2019 18:00:00 16,8 9,0 22 12 37 20 WZW 1011,0 - 0,0
16.05.2019 17:00:00 16,8 9,0 28 15 39 21 WZW 1011,0 - 0,0
16.05.2019 16:00:00 16,5 8,9 31 17 43 23 WZW 1011,1 - 0,0
16.05.2019 15:00:00 17,5 10,1 27 15 43 23 WZW 1011,4 - 0,0
16.05.2019 14:00:00 16,6 10,2 25 14 34 19 WZW 1011,9 25 0,0
16.05.2019 13:00:00 16,5 8,9 25 13 33 18 ZW 1012,1 - 0,0
16.05.2019 12:00:00 16,8 7,4 21 11 28 15 ZW 1012,3 - 0,0
16.05.2019 11:00:00 15,5 8,0 11 6 20 11 WZW 1012,6 - 0,0
16.05.2019 10:00:00 14,9 9,0 11 6 18 10 WZW 1012,8 - 0,0
16.05.2019 09:00:00 13,9 7,9 5 3 18 10 O 1013,0 - 0,0
16.05.2019 08:00:00 11,4 7,3 12 6 18 10 O 1012,9 - 0,0
16.05.2019 07:00:00 9,9 7,7 13 7 21 11 O 1013,0 - 0,0
16.05.2019 06:00:00 8,8 7,4 14 7 19 10 O 1012,8 - 0,0
16.05.2019 05:00:00 9,9 7,8 5 3 19 11 NNO 1013,2 - 0,0
16.05.2019 04:00:00 10,9 8,5 16 8 30 16 NW 1013,3 - 0,0
16.05.2019 03:00:00 10,8 7,7 22 12 27 15 NW 1013,5 - 0,0
16.05.2019 02:00:00 10,8 7,3 19 11 24 13 NW 1014,2 - 0,0
16.05.2019 01:00:00 11,0 7,1 15 8 19 10 NW 1014,7 - 0,0
16.05.2019 00:00:00 11,2 7,1 13 7 22 12 NW 1015,3 - 0,0
15.05.2019 23:00:00 11,9 7,2 19 10 24 13 NW 1015,4 - 0,0
15.05.2019 22:00:00 12,0 6,5 14 8 21 11 WNW 1015,1 - 0,0
15.05.2019 21:00:00 12,3 5,9 12 6 21 12 WNW 1014,6 - 0,0
15.05.2019 20:00:00 13,4 6,3 16 9 25 13 WZW 1014,2 25 0,0
15.05.2019 19:00:00 14,6 6,9 19 10 32 17 WZW 1013,7 - 0,0
15.05.2019 18:00:00 15,3 6,8 24 13 40 21 WZW 1013,3 - 0,0
15.05.2019 17:00:00 16,9 6,4 24 13 40 22 W 1013,0 - 0,0
15.05.2019 16:00:00 15,6 6,3 17 9 31 17 W 1013,7 - 0,0
15.05.2019 15:00:00 14,7 6,5 18 10 25 14 ZW 1014,0 - 0,0
15.05.2019 14:00:00 14,7 5,2 14 8 35 19 ZW 1013,9 20 0,0
15.05.2019 13:00:00 14,7 5,7 21 12 35 19 O 1013,8 - 0,0
15.05.2019 12:00:00 15,2 3,6 24 13 45 25 O 1013,6 - 0,0
15.05.2019 11:00:00 14,7 6,0 28 15 51 27 O 1013,7 20 0,0
15.05.2019 10:00:00 12,3 6,3 36 20 63 34 O 1013,7 - 0,0
15.05.2019 09:00:00 10,7 6,3 46 25 72 39 O 1013,9 - 0,0
15.05.2019 08:00:00 10,6 6,9 48 26 72 39 O 1013,4 15 0,0
15.05.2019 07:00:00 11,9 7,4 51 28 76 41 O 1012,5 - 0,0
15.05.2019 06:00:00 12,9 7,1 45 24 67 36 O 1011,4 - 0,0
15.05.2019 05:00:00 13,2 9,8 27 15 42 23 O 1011,5 - 0,0
15.05.2019 04:00:00 12,5 10,2 26 14 37 20 O 1011,7 - 0,0
15.05.2019 03:00:00 12,1 9,7 29 16 38 21 O 1012,5 - 0,0
15.05.2019 02:00:00 12,2 9,6 26 14 35 19 O 1013,3 - 0,0
15.05.2019 01:00:00 12,5 9,9 27 15 35 19 O 1014,1 - 0,0
15.05.2019 00:00:00 12,7 10,8 20 11 32 18 O 1014,3 - 0,0
14.05.2019 23:00:00 13,7 11,4 18 10 25 13 O 1014,0 - 0,0
14.05.2019 22:00:00 14,2 11,0 12 7 14 8 O 1013,8 - 0,0
14.05.2019 21:00:00 14,4 11,5 6 3 13 7 ZW 1013,7 - 0,0
14.05.2019 20:00:00 16,2 9,1 10 6 23 12 ZW 1013,6 - 0,0
14.05.2019 19:00:00 15,5 10,0 18 10 27 14 WZW 1013,4 - 0,0
14.05.2019 18:00:00 16,6 9,0 20 11 30 16 WZW 1013,7 - 0,0
14.05.2019 17:00:00 18,4 8,9 21 11 27 15 WZW 1013,9 - 0,0
14.05.2019 16:00:00 18,7 9,5 19 10 30 16 ZW 1014,2 - 0,0
14.05.2019 15:00:00 18,0 8,8 22 12 34 18 WZW 1015,0 - 0,0
14.05.2019 14:00:00 19,1 8,4 22 12 29 16 WZW 1015,4 - 0,0
14.05.2019 13:00:00 20,6 8,2 23 12 33 18 WZW 1016,0 - 0,0
14.05.2019 12:00:00 21,1 7,3 20 11 31 17 WZW 1016,4 - 0,0
14.05.2019 11:00:00 20,4 7,7 13 7 21 12 W 1016,9 - 0,0
14.05.2019 10:00:00 18,3 7,4 9 5 21 11 WZW 1017,3 - 0,0
14.05.2019 09:00:00 17,5 7,0 10 5 15 8 NW 1017,8 - 0,0
14.05.2019 08:00:00 14,8 6,6 12 6 15 8 NNW 1017,9 - 0,0
14.05.2019 07:00:00 12,7 6,7 11 6 15 8 NNW 1018,5 - 0,0
14.05.2019 06:00:00 13,9 6,3 10 5 13 7 N 1018,5 - 0,0
14.05.2019 05:00:00 13,2 6,1 12 6 16 8 NNW 1018,8 20 0,0
14.05.2019 04:00:00 13,9 6,3 10 6 12 7 NNW 1019,1 - 0,0

tt = temperatuur
td = dauwpunt
ff = windsnelheid
fx = windstoten
dd = windrichting
ppp = luchtdruk
vv = zicht
rr = neerslag

Weerstations in de omgeving